Weather observations for the past three days for
Fort Campbell U. S. Army Airfield
Imperial (Metric)
Date Time (cdt) Wind (mph) Vis. (mi.) Weather Sky Cond. Temperature (ºF) Relative Humidity Wind Chill (°F) Heat Index (°F) Pressure Precipitation (in)
Air Dwpt 6 hour altimeter (in) sea level (mb) 1 hr 3 hr 6 hr
Max. Min.
16 09:55 NE 7 10.00 Mostly Cloudy SCT016 BKN024 82.9 75.4 78% 91 29.98 1014.6
16 08:55 S 5 10.00 A Few Clouds FEW047 81.3 74.8 81% 87 29.98 1014.6
16 07:55 SW 3 7.00 Fair CLR 79.5 74.1 84% 84 29.99 1015.0
16 06:55 SW 3 10.00 Fair CLR 78.3 74.3 79.5 74.8 88% 81 29.96 1014.0
16 05:55 S 5 10.00 Fair CLR 77 73.4 89% 78 29.91 1012.3
16 04:55 Calm 10.00 Fair CLR 77.9 74.3 89% 80 29.91 1012.2
16 03:55 SW 6 10.00 Fair CLR 76.6 72.5 87% 78 29.9 1011.9
16 02:55 SW 7 10.00 Fair CLR 77.7 72.5 84% 80 29.88 1011.2
16 01:55 SW 7 10.00 Fair CLR 78.8 72.5 81% 82 29.89 1011.6
16 00:55 SW 7 10.00 Fair CLR 79.2 71.6 90.1 78.6 78% 82 29.91 1012.3
15 23:55 S 5 10.00 Fair CLR 79 71.4 78% 82 29.94 1013.3
15 22:55 SW 5 10.00 Fair CLR 79.7 72.1 78% 83 29.94 1013.3
15 21:55 S 8 10.00 Fair CLR 85.3 73.4 68% 92 29.91 1012.2
15 20:55 S 5 10.00 Fair CLR 86.2 73.4 66% 94 29.91 1012.3
15 19:55 SW 5 10.00 Fair CLR 85.6 72 64% 92 29.9 1012.0
15 18:55 SW 8 10.00 Fair CLR 90.3 72.9 93 89.8 57% 99 29.9 1011.9
15 17:55 W 9 10.00 Fair CLR 91.2 72.1 54% 99 29.9 1012.0
15 16:55 SW 13 10.00 Fair CLR 91.6 72 53% 99 29.91 1012.3
15 15:55 SW 12 10.00 Fair CLR 92.5 72.1 52% 100 29.92 1012.6
15 14:55 W 9 10.00 Fair CLR 92.1 72.5 53% 100 29.95 1013.6
15 13:55 SW 13 10.00 A Few Clouds FEW042 FEW200 90.9 70.7 52% 97 29.97 1014.3
15 12:55 SW 13 10.00 A Few Clouds FEW200 91.2 71.1 93.2 75.9 52% 98 29.98 1014.6
15 11:55 SW 10 10.00 Fair CLR 90.5 73 57% 99 29.99 1014.9
15 10:55 SW 12 10.00 Fair CLR 88.9 73 60% 97 29.99 1014.9
15 09:55 SW 12 10.00 Fair CLR 86.9 73.6 65% 95 30.01 1015.6
15 07:55 SW 9 10.00 Fair CLR 79.2 73.4 83% 83 30.03 1016.3
15 06:55 W 3 10.00 Fair CLR 76.8 72.3 79 74.1 86% 78 30.03 1016.3
15 05:55 SW 5 10.00 Fair CLR 74.3 70.9 89% 30.01 1015.7
15 04:55 SW 7 10.00 Fair CLR 75.9 71.4 86% 76 30 1015.4
15 03:55 SW 6 10.00 Fair CLR 76.3 71.4 85% 77 30.01 1015.7
15 02:55 SW 6 10.00 Fair CLR 76.6 71.8 85% 78 30 1015.3
15 01:55 W 6 10.00 Fair CLR 77.5 72.3 84% 79 30.02 1016.0
15 00:55 SW 7 10.00 Fair CLR 78.8 73.6 90.3 76.8 84% 82 30.02 1016.0
14 23:55 S 8 10.00 Fair CLR 80.6 71.4 74% 85 30.02 1016.0
14 22:55 Calm 10.00 Fair CLR 83.1 75.4 78% 91 30.02 1015.9
14 21:55 Calm 10.00 Fair CLR 84.6 75.2 74% 93 30.02 1016.0
14 20:55 Calm 10.00 Fair CLR 84.7 75 73% 93 30.02 1016.0
14 19:55 S 5 10.00 Fair CLR 87.8 73.6 63% 96 30.01 1015.7
14 18:55 S 7 10.00 Fair CLR 89.6 72.9 93 89.4 58% 98 30.01 1015.7
14 17:55 SW 6 10.00 A Few Clouds FEW045 91.4 71.8 53% 99 30.03 1016.4
14 16:55 SW 7 10.00 Fair CLR 91.4 71.8 53% 99 30.04 1016.7
14 15:55 SW 7 10.00 Fair CLR 92.3 72.7 53% 101 30.04 1016.7
14 14:55 SW 10 10.00 Fair CLR 91.9 72.9 54% 101 30.06 1017.3
14 13:55 SW 8 10.00 Fair CLR 91 69.8 50% 97 30.08 1018.1
14 12:55 SW 9 10.00 Partly Cloudy FEW120 FEW150 SCT190 90.7 70 91.6 75 51% 96 30.11 1019.0
14 11:55 SW 8 10.00 Partly Cloudy FEW150 FEW180 SCT210 88.3 71.1 57% 94 30.13 1019.7
14 10:55 SW 9 10.00 A Few Clouds FEW180 89.8 73.9 60% 99 30.14 1020.1
14 09:55 SW 5 10.00 A Few Clouds FEW200 85.6 72.5 65% 92 30.13 1019.8
14 08:55 S 5 10.00 Fair CLR 84 71.4 66% 89 30.14 1020.1
14 07:55 Calm 10.00 Fair CLR 80.6 69.1 68% 84 30.14 1020.1
14 06:55 Calm 10.00 Fair CLR 75 69.8 77.7 72.5 84% 75 30.12 1019.4
14 05:55 Calm 10.00 Fair CLR 74.1 70.3 88% 30.12 1019.4
14 04:55 Calm 10.00 Fair CLR 72.7 69.8 91% 30.11 1019.1
14 03:55 Calm 10.00 Fair CLR 74.7 70.5 87% 30.1 1018.8
14 02:55 Calm 10.00 Fair CLR 75.9 71.1 85% 76 30.11 1019.1
14 01:55 Calm 10.00 Fair CLR 75 70.2 85% 75 30.12 1019.4
14 00:55 Calm 10.00 Fair CLR 77 70.7 89.2 75.2 81% 79 30.14 1020.1
13 23:55 Calm 10.00 Fair CLR 78.8 71.2 78% 82 30.14 1020.1
13 22:55 Calm 10.00 Fair CLR 79.2 71.6 78% 82 30.14 1020.1
13 21:55 Calm 10.00 Fair CLR 79.2 72.3 80% 82 30.14 1020.1
13 20:55 Calm 10.00 Fair CLR 82.9 70.7 67% 87 30.13 1019.8
13 19:55 SW 5 10.00 Fair CLR 86.9 73.2 64% 94 30.12 1019.4
13 18:55 SW 6 10.00 Fair CLR 88.9 70.5 91.8 88.2 55% 95 30.12 1019.5
13 17:55 W 3 10.00 Fair CLR 90.1 68.4 49% 94 30.12 1019.5
13 16:55 W 3 10.00 Fair CLR 91.4 67.6 46% 95 30.14 1020.2
13 15:55 W 7 10.00 Fair CLR 91 67.3 46% 95 30.15 1020.5
13 14:55 W 8 10.00 Fair CLR 90.9 70.7 52% 97 30.16 1020.8
13 13:55 W 7 10.00 A Few Clouds FEW140 FEW160 90.7 71.1 53% 97 30.18 1021.5
13 12:55 Calm 10.00 Mostly Cloudy FEW130 SCT170 BKN190 88.3 67.3 90.3 72.9 50% 92 30.19 1021.9
13 11:55 SW 5 10.00 Fair CLR 87.6 68.4 53% 91 30.2 1022.2
13 10:55 SE 3 10.00 Fair CLR 86.4 70.3 59% 91 30.2 1022.2
Date Time (cdt) Wind (mph) Vis. (mi.) Weather Sky Cond. Air Dwpt Max. Min. Relative Humidity Wind Chill (°F) Heat Index (°F) altimeter (in) sea level (mb) 1 hr 3 hr 6 hr
6 hour
Temperature (ºF) Pressure Precipitation (in)